Regional Weather Roundup
Issued by NWS Kansas City/Pleasant Hill, MO

Home | Current Version | Previous Version | Text Only | Print | Product List | Glossary On
Versions: 1 2 3 4 5 6 7 8 9 10 11 12 13 14 15 16 17 18 19 20 21 22 23 24 25 26 27 28
000
ASUS43 KEAX 220910
RWREAX

WEATHER ROUNDUP FOR EASTERN KANSAS AND NORTHWEST MISSOURI
NATIONAL WEATHER SERVICE KANSAS CITY/PLEASANT HILL MO
300 AM CST THU FEB 22 2018

KSZ040-057-103>105-MOZ028-029-037-043-221000-
...KANSAS CITY METROPOLITAN AREA...

CITY           SKY/WX    TMP DP  RH WIND       PRES   REMARKS
K.C. INTL      FRZ RAIN  26  24  92 NE8       30.41F FOG     WCI  18
K.C. DOWNTOWN  FRZ RAIN  29  24  82 NE8       30.41F WCI  21
LEES SUMMIT    CLOUDY    27  26  96 NE7       30.39F FOG     WCI  19
OLATHE - IXD   FRZ RAIN  28  26  92 NE8       30.39F WCI  20
OLATHE - OJC   CLOUDY    26  25  96 NE9       30.38F WCI  17
LAWRENCE       CLOUDY    27  25  92 N7        30.41F FOG     WCI  19

$$

MOZ001>008-011>017-020>025-030>033-038>040-044>046-053-054-221000-
...NORTHERN AND CENTRAL MISSOURI...

CITY           SKY/WX    TMP DP  RH WIND       PRES   REMARKS
ST. JOSEPH     CLOUDY    26  25  96 NE9       30.45S FOG     WCI  17
MOSBY          MIX PCPN  28  25  86 NE8       30.42F WCI  20
WARRENSBURG    CLOUDY    28  28 100 CALM      30.41S
WHITEMAN AFB   FRZ DRZL  29  27  92 NE7       30.34F VSB 1   WCI  21
CLINTON        LGT RAIN  30  30 100 CALM      30.38S
SEDALIA        CLOUDY    30  30 100 E12       30.38F FOG     WCI  20
WARSAW         NOT AVBL
CHILLICOTHE      N/A     27  24  89 NE10      30.45F WCI  17
KIRKSVILLE     CLOUDY    27  24  89 NE12      30.45S WCI  17

$$

MOZ041-047>049-056>058-063>065-088>090-097-221000-
...EASTERN AND SOUTHERN MISSOURI...

CITY           SKY/WX    TMP DP  RH WIND       PRES   REMARKS
ST. LOUIS INTL DRIZZLE   32  32 100 N9        30.40F FOG     WCI  24
SPIRIT OF STL  LGT RAIN  33  32  96 NE8       30.40F FOG     WCI  26
COLUMBIA       FRZ RAIN  31  29  92 NE10      30.39S FOG     WCI  22
JEFFERSON CITY FRZ RAIN  31  29  92 CALM      30.40F FOG
ROLLA          CLOUDY    30  30 100 NE10      30.35S WCI  21
OSAGE BEACH    MIX PCPN  31  30  96 NE6       30.38S FOG     WCI  25
SPRINGFIELD    FRZ RAIN  31  30  96 NE7       30.31F FOG     WCI  24
BRANSON        FOG       30  30 100 N5        30.32S VSB 1/2 WCI  25
JOPLIN         CLOUDY    30  30 100 E6        30.34F FOG     WCI  24
WEST PLAINS    CLOUDY    32  31  96 N9        30.29F FOG     WCI  24

$$

IAZ060-094-KSZ022-034>040-054-083-096-NEZ052-066-093-221000-
...KANSAS...SOUTHEAST NEBRASKA AND IOWA...

CITY           SKY/WX    TMP DP  RH WIND       PRES   REMARKS
TOPEKA         FRZ RAIN  28  27  96 NE10      30.40F FOG     WCI  19
MANHATTAN      LGT SNOW  28  25  88 E5        30.40S FOG     WCI  23
EMPORIA        CLOUDY    25  24  96 NE7       30.37S FOG     WCI  17
CHANUTE        CLOUDY    29  28  96 N5        30.37S WCI  24
WICHITA        FRZ DRZL  27  26  96 NE6       30.36S FOG     WCI  20
OMAHA          CLOUDY    23  18  81 NE5       30.50F WCI  17
LINCOLN        LGT SNOW  22  19  89 NE10      30.46F FOG     WCI  11
FALLS CITY     LGT SNOW  25  22  88 E9        30.42F FOG     WCI  15
LAMONI         LGT SNOW  24  20  84 NE13      30.45F FOG     WCI  12
DES MOINES     CLOUDY    25  16  68 E6        30.52S WCI  18

$$





USA.gov is the U.S. government's official web portal to all federal, state and local government web resources and services.